Find Orbcomm FM106

NORAD ID: 40088 Int'l Des: 2014-040 Owner: ORBC Country: US Constellation: orbcomm operational
LEOCIRCULAR

リアルタイム位置

3D地球を読み込み中...

Orbcomm FM106について

説明を読み込み中...

次回通過

Passes for default location (London). Set your location on the main map for personalized predictions.

高度履歴

Loading altitude history...

軌道要素

1 40088U 14040C 26105.50254014 .00000287 00000-0 78309-4 0 9992
2 40088 47.0595 186.1908 0015758 29.7600 330.4185 14.70389207627959
Epoch: Apr 15, 2026 • Age: 19 hours

現在のステータス

高度 675.3 km
速度 7.52 km/s
衛星直下点 -42.41°S, 170.23°E
打ち上げ日 Jul 14, 2014
運用期間 11.7 years
タイプ other

技術仕様

分類 Payload
質量 172.00 kg
乾燥質量 158.00 kg
総質量 172.00 kg
長さ 1.00 m
直径 0.50 m
スパン 13.00 m
形状 Box+pan+ant
製造者 SNVL
バスタイプ SN-100A
フェーズステータス In Orbit
所有者/国 ORBC/US

Most Searched